Dewpoint
75 74 73 73 73 73 71 69 54 60 59 55 54 55 53 59 60 58 60 61 60 62 63 62 62 61 62 60 58 63 64 59 59 50 48 63 70 70 72 72 72 71 71 72 73 74 74 74 74 74 74 74 74 74 74 75 76 77 77 77 78 78 78 77 77 77 77 78 77 77 77 77 77 77 76 76 76 75 75 75 75 75 75 75 74 75 75 74 74 74 74 74 74 74 74 74 74
73 72 72 72 72 72 65 68 60 56 55 51 51 55 54 59 58 56 59 59 59 60 62 63 63 64 64 63 64 62 61 65 66 65 67 70 70 71 72 72 71 71 71 73 73 73 74 74 75 75 75 75 75 75 75 75 77 77 77 78 78 78 78 78 78 78 77 77 77 77 77 77 77 76 76 76 75 75 75 75 75 75 75 74 74 74 74 74 74 74 74 74 74 74 74 74 74
72 72 72 72 71 70 68 67 56 51 48 47 50 53 56 56 56 57 58 59 60 61 63 63 63 63 62 62 60 61 58 66 65 66 67 70 68 70 72 72 72 71 72 73 74 74 74 74 75 76 76 76 76 76 77 77 77 77 78 78 78 78 78 78 77 77 77 77 77 77 77 77 76 76 76 75 75 75 75 75 75 74 74 74 74 74 74 74 74 74 74 74 74 74 74 74 74
72 71 71 71 66 69 63 61 55 51 48 48 49 53 56 56 56 57 59 59 61 62 62 61 60 63 61 61 62 63 63 64 66 66 67 68 69 71 72 72 73 73 73 74 74 73 74 75 75 76 76 76 76 76 77 77 77 77 78 78 78 77 77 77 77 77 77 77 77 77 77 77 76 76 76 76 75 75 75 74 74 74 74 74 74 74 74 74 74 74 74 74 74 74 74 74 74
71 71 71 70 67 62 61 58 56 53 48 51 48 52 57 56 56 57 58 59 61 61 61 61 62 64 63 62 64 60 63 66 66 67 68 71 71 72 72 73 72 73 73 73 74 73 74 75 76 76 75 76 76 77 77 77 77 77 78 78 77 77 77 77 77 77 77 77 77 77 77 77 76 76 76 75 75 75 75 75 74 74 74 74 74 74 75 74 74 74 74 74 74 74 75 74 74
70 70 71 69 65 66 63 57 53 53 53 53 50 52 56 56 57 58 58 59 60 61 62 62 62 62 62 64 66 64 65 62 66 67 69 70 71 73 73 73 72 72 73 73 73 74 75 76 76 75 75 75 76 77 77 77 77 77 77 77 77 77 77 77 77 77 77 77 77 77 76 76 76 76 76 75 74 75 75 75 74 74 74 74 74 74 74 75 75 74 74 75 74 74 74 74 74
68 68 68 68 67 69 59 57 54 54 55 54 52 53 55 57 58 58 59 60 61 61 62 61 62 61 61 64 65 66 68 67 66 67 70 71 72 73 73 72 72 72 73 73 74 74 75 76 76 76 75 76 76 77 77 77 77 77 77 77 77 77 77 77 77 77 77 76 76 76 76 76 76 76 75 75 74 75 75 74 74 75 74 74 74 74 74 74 74 74 74 75 75 74 75 74 75
69 67 65 63 61 61 57 57 56 56 54 55 54 54 56 58 58 59 59 60 59 59 61 60 61 62 63 65 62 68 69 70 70 70 71 71 72 73 73 72 72 72 73 73 74 74 76 75 76 76 76 76 76 76 77 77 77 77 77 77 76 77 77 76 77 77 76 76 76 76 76 76 76 75 75 74 74 74 75 74 74 74 74 74 73 74 74 74 74 75 74 74 75 75 74 74 74
67 67 69 65 60 59 57 56 55 57 56 56 54 57 60 58 59 59 59 60 60 60 60 62 62 59 63 64 64 68 70 71 71 72 71 72 72 72 72 72 72 73 73 73 74 74 75 76 76 76 76 75 76 76 76 77 77 77 77 77 76 76 76 76 76 76 76 76 76 76 75 75 75 75 74 74 74 74 75 75 75 74 74 74 74 74 73 74 74 74 75 75 75 75 74 74 74
66 67 64 62 59 55 52 51 51 50 55 56 53 56 57 58 59 60 59 59 59 61 62 63 63 61 64 62 65 67 68 71 71 70 71 72 72 72 72 72 73 73 73 73 74 74 75 76 76 76 76 75 75 76 76 76 76 76 77 77 76 76 77 76 76 76 76 76 76 76 75 75 75 75 74 74 74 74 75 75 74 74 74 74 74 74 73 74 74 74 74 75 75 76 75 74 74
64 66 66 62 55 53 51 47 48 49 48 52 54 56 57 58 59 59 59 59 61 61 63 64 63 63 63 63 66 70 70 70 69 69 70 71 72 72 72 72 73 73 73 73 74 74 75 75 76 76 76 75 76 76 76 76 76 76 76 77 76 76 76 76 76 76 76 76 76 76 75 75 75 75 74 74 74 74 75 75 74 74 74 74 74 74 74 74 74 75 74 75 75 75 75 76 74
64 64 65 59 56 51 50 47 47 46 49 52 53 56 57 59 59 59 59 59 62 62 62 63 62 64 62 63 65 69 70 69 69 70 70 71 71 72 72 72 73 73 73 74 74 74 74 75 75 76 75 75 76 76 76 76 76 76 76 76 76 76 76 76 76 76 76 76 76 75 75 75 75 75 75 74 74 74 74 74 74 74 74 74 74 74 74 75 75 75 75 75 75 74 74 75 74
65 64 61 57 54 53 52 48 46 51 50 51 53 56 58 58 58 59 59 60 62 61 62 63 64 63 61 63 67 68 68 69 69 70 70 71 71 71 72 72 72 73 73 74 74 74 74 74 75 75 75 75 76 76 76 76 76 76 76 76 76 76 76 76 76 76 76 76 75 75 75 75 75 75 75 75 74 74 74 74 74 74 74 74 74 74 75 75 74 74 75 74 75 74 74 74 74
65 63 58 55 53 49 48 48 44 47 48 51 54 56 58 57 58 60 61 61 61 60 63 64 63 64 64 65 66 67 67 69 70 70 70 70 71 71 71 72 72 73 73 74 74 74 74 74 75 74 75 75 75 76 76 76 76 76 76 76 76 76 76 76 75 75 75 75 75 75 75 75 75 75 75 75 74 75 75 74 74 74 74 74 74 75 75 74 74 74 74 74 74 74 75 74 74
64 63 54 53 50 45 46 45 42 46 47 51 54 56 56 58 60 61 60 60 61 64 65 65 65 61 61 63 63 66 67 69 70 70 69 70 70 71 71 71 72 73 73 74 74 74 74 74 74 75 75 75 75 75 75 75 76 75 76 76 76 76 76 75 75 75 75 75 75 75 75 75 75 75 75 75 74 74 74 74 74 73 74 74 75 74 73 74 74 74 74 74 75 75 75 75 73
65 65 54 52 51 46 47 44 43 47 47 51 53 56 56 59 61 61 61 62 62 64 64 62 64 61 62 63 64 67 68 69 69 69 69 70 70 70 71 71 72 72 73 74 74 75 74 74 74 75 75 75 74 75 75 75 75 75 76 75 75 75 75 75 75 75 75 75 75 75 75 76 75 75 75 75 74 74 74 74 74 74 73 74 74 73 73 73 74 74 74 74 75 75 75 75 73
66 65 60 54 54 48 47 44 43 45 46 50 54 55 56 58 61 60 63 64 63 63 62 63 62 64 64 64 66 68 69 69 70 69 69 70 70 71 71 72 72 72 73 74 74 74 74 74 74 75 74 75 74 75 75 75 76 76 75 75 75 75 75 75 75 75 75 75 75 75 76 77 76 76 76 76 75 77 77 74 74 74 74 74 73 72 73 73 73 73 74 75 75 75 75 75 75
66 62 59 58 58 55 51 46 41 42 45 50 54 55 57 58 59 62 62 62 62 62 62 63 65 65 65 67 68 69 69 68 68 68 69 69 70 70 70 71 71 71 72 73 74 74 74 75 74 74 74 75 74 75 75 76 76 75 75 75 75 75 75 74 75 75 75 76 75 76 76 77 75 75 75 77 77 77 77 75 75 75 74 74 73 73 73 73 74 74 74 75 76 75 75 77 77
63 57 57 56 54 54 51 50 46 42 42 51 54 56 57 58 59 61 60 60 61 60 62 63 64 65 67 68 68 68 68 68 68 68 68 68 69 69 69 70 70 71 71 73 73 74 74 74 75 74 74 75 75 75 75 75 76 75 75 75 75 75 75 75 75 76 76 75 76 75 77 76 75 75 76 76 77 76 77 75 75 75 74 74 74 74 74 74 75 74 75 76 75 76 77 76 76
64 59 54 54 54 53 49 48 48 49 44 51 54 56 57 58 59 61 59 60 60 60 61 63 64 65 66 67 68 68 68 68 68 68 68 68 68 68 68 69 69 70 71 72 72 74 74 74 75 75 75 75 75 75 75 75 75 75 75 74 75 75 75 76 75 76 75 75 75 75 75 76 76 75 77 76 75 77 76 77 76 74 75 76 75 77 77 77 76 77 77 77 77 76 75 75 75
63 62 59 56 56 55 55 54 52 51 44 50 53 56 56 58 59 59 60 59 59 60 62 61 63 65 66 67 67 68 67 68 68 68 68 68 68 68 69 69 69 70 71 72 73 73 74 74 75 75 75 75 75 75 75 75 75 75 74 74 75 75 75 75 75 75 75 75 75 75 75 76 75 75 75 75 76 76 76 76 76 76 76 75 77 75 75 75 76 75 75 75 73 73 74 74 75
53 61 61 59 57 50 50 49 48 46 45 48 52 55 54 58 59 58 59 57 57 59 61 62 64 66 66 67 67 68 67 68 68 68 68 68 68 68 68 69 69 70 71 71 72 73 73 74 74 75 75 75 75 75 75 75 75 74 74 74 74 75 75 75 75 75 75 75 75 75 76 75 75 75 75 75 75 75 75 75 75 75 75 76 77 75 75 75 74 74 74 74 73 73 73 74 73
56 55 56 56 55 53 53 51 47 45 45 48 53 54 57 57 57 58 59 57 56 59 61 62 65 66 67 67 67 67 67 67 68 68 68 67 68 68 68 69 69 70 71 71 72 73 73 74 74 74 74 75 75 75 75 75 75 74 74 74 74 74 75 75 75 75 75 75 75 76 75 75 75 75 74 74 74 75 74 74 74 75 75 75 75 75 75 74 74 74 74 74 73 74 74 74 73
56 54 50 48 49 49 49 48 49 45 44 46 51 56 56 57 56 58 58 57 59 60 62 64 65 66 67 67 67 67 67 67 68 68 68 68 68 68 68 68 69 70 71 71 72 72 73 73 74 74 74 74 75 75 75 75 75 74 74 75 75 75 75 75 74 75 75 75 75 75 76 75 74 74 74 74 74 74 74 74 74 74 74 75 75 76 75 74 73 74 74 74 74 74 73 73 73
54 54 54 54 53 53 52 50 48 46 44 45 52 54 55 56 56 57 57 57 60 61 63 65 66 66 66 67 67 67 67 67 67 68 68 69 68 68 68 69 69 70 70 70 71 72 73 73 74 74 74 74 74 74 74 74 75 74 75 75 75 76 75 75 75 75 75 75 75 76 77 75 74 74 74 74 74 73 74 73 73 74 74 74 75 74 74 74 73 74 74 74 73 74 73 73 74
52 52 53 52 50 50 48 45 42 42 45 43 51 53 55 56 56 56 57 57 61 63 64 65 65 66 66 66 67 67 67 67 67 68 68 69 69 68 68 68 69 69 70 70 71 71 72 73 73 73 73 74 74 74 74 74 75 74 74 75 75 76 75 75 75 75 75 75 75 75 75 75 74 74 74 74 73 73 73 73 74 74 74 74 74 74 74 74 73 73 74 74 73 73 73 73 74
49 50 52 51 51 50 49 46 44 41 42 41 45 50 52 54 54 53 56 59 62 63 64 65 65 65 66 66 67 67 67 67 67 68 68 69 69 68 68 68 69 69 70 70 70 71 72 73 73 73 73 74 74 73 73 74 74 74 74 75 75 75 75 75 75 75 75 74 75 75 75 76 75 74 74 73 73 73 73 73 73 74 74 74 74 73 73 74 74 74 74 73 73 73 73 73 74
41 42 39 38 38 34 34 28 29 36 39 40 42 46 51 50 52 51 55 61 62 63 64 64 64 65 65 66 67 67 67 68 68 68 67 68 68 68 68 68 68 69 69 70 70 71 72 72 72 73 73 73 73 73 74 73 74 74 74 74 74 75 75 75 75 75 75 74 75 75 75 75 75 75 74 73 73 73 73 73 73 73 73 74 74 73 73 75 75 74 74 74 74 74 74 73 73
36 31 26 24 21 19 21 21 24 33 33 41 40 40 45 45 49 52 58 61 62 63 63 64 64 65 65 66 66 67 67 67 67 67 67 68 68 69 68 68 68 69 69 70 70 71 71 72 72 72 73 73 73 73 73 73 73 74 74 74 74 75 75 75 74 74 75 75 75 75 75 75 75 75 74 74 75 73 73 73 73 74 73 74 74 74 74 75 75 74 74 75 73 74 72 72 72
34 35 22 23 21 20 24 24 24 31 36 41 40 37 39 44 47 57 60 61 62 62 63 63 64 64 65 65 65 66 67 67 67 67 67 68 68 69 69 69 69 69 69 69 70 70 71 72 72 72 72 72 73 73 73 73 73 74 74 74 75 74 74 74 74 74 75 75 75 74 74 74 75 75 74 74 73 73 73 73 73 73 73 73 74 75 74 74 74 74 74 73 73 73 71 70 70
33 33 23 22 19 20 24 28 32 30 38 40 40 35 37 39 43 58 60 61 61 61 62 63 63 64 64 65 65 65 66 67 67 67 67 68 68 69 69 69 69 69 69 69 70 70 71 71 71 71 73 72 73 73 73 73 73 73 74 74 74 74 74 74 74 74 74 74 74 74 74 74 75 75 74 74 74 73 73 73 73 73 73 74 74 74 74 74 74 74 74 73 72 71 70 70 69
20 30 25 20 19 22 24 34 31 24 40 40 39 36 34 38 42 58 60 61 61 60 62 62 62 63 63 64 64 65 65 66 67 67 67 68 68 68 69 69 69 69 69 69 70 71 71 71 72 71 72 72 73 73 73 73 73 73 73 74 74 74 74 73 74 74 74 74 74 74 74 74 74 74 74 74 74 73 73 73 73 73 74 74 74 74 74 74 73 73 73 73 72 71 70 68 68
22 29 27 22 19 20 18 21 26 31 41 40 38 36 40 41 50 58 59 60 60 60 61 62 62 62 63 63 64 65 65 65 66 67 67 68 68 68 69 69 69 69 69 70 70 71 71 71 72 71 72 72 72 73 73 73 73 73 73 73 73 74 73 73 73 74 74 73 73 73 74 74 74 74 74 74 74 73 73 73 73 74 75 74 74 74 74 74 73 73 73 74 72 72 69 67 67
29 22 22 23 21 21 21 19 22 37 40 38 39 37 39 47 55 58 59 60 59 59 60 61 61 62 62 63 63 64 65 65 65 66 67 67 68 68 69 70 70 70 70 70 70 71 71 71 72 71 72 72 72 73 73 73 73 73 73 73 74 73 73 73 73 73 73 73 73 73 74 74 75 74 74 74 74 74 74 74 74 74 74 74 74 73 73 73 73 73 73 72 73 71 68 66 67
31 29 23 20 21 16 17 17 18 33 41 38 38 38 39 51 56 58 58 59 59 59 60 61 61 61 62 62 63 64 64 64 65 66 67 67 68 68 69 69 70 70 70 70 71 71 71 72 72 72 72 72 72 73 73 73 73 73 73 73 73 73 73 73 73 73 73 73 73 73 73 74 75 74 74 74 74 74 74 74 74 74 74 74 74 73 73 73 73 71 72 72 71 69 68 67 68
27 26 24 22 19 19 17 18 19 23 25 38 38 37 38 52 55 57 58 59 58 58 60 60 61 61 62 62 62 63 64 64 65 66 67 67 68 68 69 69 70 70 70 70 71 71 71 72 72 72 72 72 73 73 73 73 72 72 72 72 72 72 73 73 73 73 73 73 73 73 73 74 74 75 74 74 74 74 74 74 74 74 74 74 73 72 72 72 72 72 71 71 69 70 69 68 68
24 20 18 16 16 15 17 19 18 20 33 34 37 38 38 49 55 57 58 58 58 58 59 59 60 60 61 61 62 62 63 64 65 66 66 67 67 68 69 69 69 70 70 70 70 71 71 71 72 72 72 72 72 72 72 72 71 71 72 72 71 72 72 73 73 73 72 72 73 73 73 74 74 75 75 74 74 75 74 74 74 74 74 74 73 73 73 72 71 72 72 72 68 66 65 66 65
25 25 23 21 18 19 20 18 20 24 31 35 41 39 39 45 54 56 58 58 57 57 58 59 59 60 60 61 61 62 63 64 64 65 65 66 67 67 68 69 70 69 70 70 70 71 71 71 71 71 72 72 72 72 72 72 72 71 71 71 71 71 72 72 72 72 72 72 73 73 73 74 74 74 75 74 74 74 74 74 74 74 74 74 73 73 72 73 73 71 70 68 68 66 65 65 64
20 21 22 19 20 18 18 16 18 18 22 19 23 37 38 41 53 56 57 57 57 57 58 58 59 59 60 60 61 61 62 63 63 64 64 65 66 67 67 68 69 69 69 69 70 70 71 71 71 71 72 72 72 72 72 72 72 72 71 71 71 71 72 72 72 72 73 72 72 73 74 74 74 74 75 75 74 75 74 74 74 74 74 74 73 72 72 71 71 71 69 68 66 65 68 68 65
19 17 18 18 20 19 19 19 22 21 21 23 33 30 35 47 54 55 56 57 57 58 58 58 59 59 59 60 60 61 61 62 62 63 63 64 65 66 67 67 68 68 69 69 70 70 70 71 71 71 71 72 72 72 73 72 72 72 72 72 72 72 71 73 73 73 73 72 72 73 74 74 74 74 74 75 75 75 75 74 74 74 73 73 73 72 71 71 70 69 68 68 66 64 63 64 67
20 19 18 18 18 18 18 19 17 18 19 25 36 38 39 48 51 54 56 57 57 57 57 58 59 59 60 60 60 61 61 61 62 62 63 63 64 65 66 67 67 68 68 69 69 69 70 70 71 71 71 71 72 73 72 72 72 72 72 72 73 72 73 72 72 71 72 72 72 72 73 74 74 74 75 75 75 75 75 74 74 74 73 73 73 72 71 71 70 69 68 68 66 65 62 63 67
22 21 19 20 20 19 19 19 16 19 17 20 27 22 35 42 48 51 54 55 56 56 56 57 58 58 59 59 59 60 61 61 62 62 63 63 63 64 65 66 66 67 68 68 69 69 70 70 71 71 71 71 71 72 72 72 71 71 71 70 70 70 70 70 70 70 71 71 71 72 73 74 74 75 75 75 75 75 75 74 74 74 73 73 73 72 71 69 68 67 68 67 66 64 65 63 64
22 23 22 20 20 19 18 17 17 21 19 24 31 21 24 38 41 47 52 54 55 56 56 56 57 58 58 58 59 59 60 61 61 62 62 62 62 62 63 65 65 66 67 68 69 69 69 70 70 71 71 71 71 72 72 72 71 71 71 70 70 70 69 70 71 71 71 71 72 72 73 74 74 74 75 75 75 75 75 75 74 74 73 73 73 72 70 68 67 67 68 66 66 67 64 63 63
21 22 22 21 20 19 18 16 15 19 27 28 27 32 26 28 36 41 48 52 54 55 55 55 56 57 57 58 58 59 60 60 61 61 62 62 62 62 62 63 65 65 66 67 68 69 69 70 70 70 70 71 71 71 72 72 71 71 70 70 70 70 70 70 71 71 72 72 72 72 73 74 75 75 75 75 75 75 75 75 74 74 73 73 73 72 70 68 67 66 68 67 66 66 64 63 63
21 19 18 18 17 17 16 15 15 18 21 15 20 27 21 26 29 41 45 49 51 53 54 54 55 56 57 58 58 58 59 60 60 61 61 61 62 62 62 62 64 65 66 67 67 68 69 69 70 70 70 71 71 71 72 72 72 71 70 70 70 70 70 71 71 72 71 72 71 72 73 74 74 75 75 75 75 75 76 75 74 74 73 73 74 72 70 68 66 66 67 66 65 66 64 64 65
22 18 21 19 17 17 15 15 16 25 20 15 17 18 15 17 29 38 44 46 48 50 53 54 54 55 56 57 57 58 58 59 60 60 61 61 61 62 62 62 63 64 65 67 67 68 68 69 70 70 70 70 71 71 72 71 71 71 70 70 70 70 71 71 71 71 71 72 71 72 73 73 74 75 75 75 75 75 75 75 74 74 73 73 73 72 70 67 66 66 67 66 65 65 65 66 64
21 21 20 19 19 20 27 23 22 21 13 15 14 17 14 12 22 33 40 42 45 47 50 52 53 53 54 56 57 57 57 58 59 60 60 60 61 61 62 61 62 63 64 65 66 67 68 68 69 69 70 70 71 71 71 71 71 71 70 70 70 70 70 70 70 70 71 71 71 71 72 73 74 74 75 75 75 75 75 75 74 74 73 73 73 71 70 67 66 66 66 67 66 65 64 66 68
19 17 18 21 20 19 21 18 25 14 11 19 14 16 15 13 22 33 38 41 43 44 46 48 50 51 52 54 55 56 57 57 58 59 59 60 60 60 61 61 61 62 64 64 65 66 67 68 69 69 69 70 70 71 71 71 71 71 71 70 70 70 70 70 70 70 70 70 71 71 72 73 73 74 74 74 74 74 75 75 75 74 73 73 72 71 70 68 67 66 66 66 66 65 65 67 67
20 18 20 16 19 17 16 16 12 11 10 20 14 16 23 16 23 29 34 39 40 43 44 45 47 49 51 51 53 55 56 56 57 58 59 59 59 59 60 61 62 62 63 64 65 65 67 68 68 68 69 70 70 71 71 71 71 71 71 71 71 71 70 70 70 70 70 71 71 71 72 72 73 73 74 74 74 74 74 74 74 74 73 72 72 71 69 68 67 66 66 66 66 65 64 65 66
19 18 18 17 15 12 11 17 17 15 16 19 19 19 11 22 26 25 27 37 40 40 42 43 45 47 49 50 51 53 54 55 56 57 58 59 59 58 59 60 61 61 62 63 64 66 66 67 68 68 68 69 70 70 71 71 71 71 71 71 71 71 71 70 70 70 70 71 71 71 71 72 72 73 73 74 74 74 74 74 74 74 73 72 71 70 69 68 67 66 66 65 65 65 65 65 65
19 18 15 18 18 15 12 13 9 8 12 18 19 14 19 15 19 25 22 32 40 40 40 42 43 45 47 48 49 51 53 54 55 56 57 58 58 58 58 59 60 60 61 61 63 65 66 67 67 68 68 69 69 70 70 70 71 71 71 71 71 71 71 71 70 71 71 71 71 71 71 72 72 73 73 74 74 74 74 74 74 74 73 72 71 70 69 68 67 67 66 66 66 65 65 65 65
17 16 17 18 16 23 13 15 13 14 12 11 22 16 24 16 32 41 26 26 37 41 41 42 42 43 44 45 46 48 50 52 53 54 55 57 58 58 58 58 59 60 61 61 62 64 65 66 67 68 68 68 69 70 70 70 71 71 71 71 71 71 71 71 71 71 71 71 71 71 71 71 72 73 73 74 74 74 74 74 74 73 73 72 71 70 69 68 67 66 66 66 65 66 65 65 65
16 15 15 17 16 13 18 29 23 22 15 12 28 24 23 26 26 27 31 30 31 39 41 41 41 41 43 44 45 46 48 50 52 53 54 56 57 58 58 58 58 58 59 61 62 64 65 66 66 67 68 68 69 69 70 70 71 71 71 71 71 71 71 71 70 70 70 71 71 71 71 71 72 73 73 74 74 74 74 74 73 73 73 72 71 70 69 68 67 67 66 65 65 66 66 65 65
12 14 15 14 16 16 17 14 17 15 11 14 22 16 18 23 18 39 31 33 31 35 39 40 41 42 42 43 44 45 46 48 51 52 53 55 56 57 57 57 57 57 58 60 62 63 64 65 66 66 67 68 68 69 69 70 70 70 71 71 71 71 71 71 71 71 71 71 71 71 71 71 71 72 73 73 74 74 74 74 73 73 73 72 71 70 69 68 68 67 67 66 65 66 66 66 66
12 13 13 14 15 15 19 18 11 11 11 10 12 24 20 23 24 34 30 32 32 34 38 40 41 42 43 43 45 45 45 46 48 50 51 53 54 56 57 56 56 57 59 60 61 62 63 64 65 65 66 67 68 68 69 70 70 70 70 71 71 71 71 71 71 71 71 70 70 70 70 71 71 73 73 73 73 73 73 73 73 73 72 72 71 70 69 69 68 67 67 66 66 66 66 66 66
18 11 11 17 13 19 16 15 20 16 11 15 9 16 10 25 20 29 27 31 33 33 35 38 40 41 42 43 44 45 46 46 46 48 49 51 53 54 55 55 56 56 58 59 59 60 61 63 65 65 66 67 68 68 69 70 70 70 70 71 71 71 71 71 71 71 71 70 70 70 70 70 71 72 73 73 73 73 73 73 73 72 72 71 71 70 69 69 67 67 67 66 66 66 65 65 65
14 13 9 11 19 15 12 20 10 13 15 11 10 6 16 24 27 26 27 31 33 33 35 38 40 41 42 43 44 45 47 47 47 47 48 49 51 52 54 55 56 56 57 58 58 59 60 62 64 65 65 66 66 67 68 69 70 70 71 71 71 71 71 71 71 71 71 71 71 71 70 71 71 72 72 73 73 73 73 73 72 72 72 71 71 70 69 68 68 67 67 66 66 66 65 65 66
15 13 12 9 9 12 9 11 13 16 14 16 9 6 19 23 33 30 27 30 32 35 36 37 39 40 43 43 44 45 46 48 48 47 46 47 50 52 53 55 56 56 56 57 58 59 60 61 63 64 64 65 66 67 68 69 70 70 70 70 71 71 71 71 71 71 71 71 71 71 71 71 71 71 72 72 72 72 73 73 72 72 72 71 71 70 69 68 68 67 67 66 66 66 65 65 66